Starlink 31928

operational
NORAD ID: 59897 Int'l Des: 2024-100 Owner: SPXS Country: US Constellation: starlink
LEOCIRCULAR

About Starlink 31928

Description loading...

Live Position

Loading 3D Globe...

Upcoming Passes

Altitude History

Altitude vs Time

uPlot chart will show altitude changes over time

Two-Line Element Set

1 59897U 24100N 26094.06014911 -.00005299 00000-0 -18330-3 0 9993
2 59897 42.9999 342.4095 0000627 319.9629 40.1176 15.27561521104934
Epoch: Apr 4, 2026 • Age: 32 hours

Current Status

Altitude 495.7 km
Velocity 7.62 km/s
Sub-Earth Point -41.43°S, 117.85°W
Launch Date May 28, 2024
Age 1.8 years
Type internet

Technical Details

Classification Payload
Mass 730.00 kg
Dry Mass 700.00 kg
Total Mass 730.00 kg
Length 0.30 m
Diameter 4.10 m
Span 29.00 m
Shape Box + pan
Manufacturer SPXS
Bus Type Starlink V2M
Phase Status In Orbit
Owner/State SPXS/US

Large Constellations

Loading constellations...